Regional Weather Roundup
Issued by NWS

Home | Current Version | Previous Version | Text Only | Print | Product List | Glossary On
Versions: 1 2 3 4 5 6 7 8 9 10 11 12 13 14 15 16 17 18 19 20 21 22 23 24 25 26 27 28 29 30 31 32 33 34 35 36 37 38 39 40 41 42 43 44 45 46 47 48 49 50
000
ASUS42 KKEY 221410
RWRKEY

FLORIDA REGIONAL WEATHER ROUNDUP FOR THE FLORIDA KEYS
NATIONAL WEATHER SERVICE KEY WEST FLORIDA
1000 AM EDT MON SEP 22 2014

...SOUTH FLORIDA AND THE KEYS...

CITY           SKY/WX    TMP DP  RH WIND       PRES   REMARKS
FORT MYERS     CLOUDY    77  74  90 SE3       30.05R
SW REGIONAL AP CLOUDY    79  61  53 SE6       30.05R
NAPLES         CLOUDY    81  75  82 SE5       30.04R
MIAMI          PTSUNNY   85  76  74 E6        30.06R HX  94
WEST KENDALL   LGT RAIN  85  76  74 E5        30.06R HX  94
HOMESTEAD      PTSUNNY   84  76  77 E5        30.06S HX  94
MARATHON       CLOUDY    84  72  67 NE10      30.06R
BOCA CHICA NAS CLOUDY    85  76  74 E6        30.04S HX  94
KEY WEST INTL  CLOUDY    86  76  71 CALM      30.05R HX  96

...INTERNATIONAL WEATHER...

CITY           SKY/WX    TMP DP  RH WIND       PRES   REMARKS
NASSAU BAHAMAS NOT AVBL
CANCUN MEXICO  PTSUNNY   84  77  79 SE8       29.97S HX  94
COZUMEL MEXICO PTSUNNY   81  79  94 SE8       29.92F

ADJACENT COASTAL WATERS...

STATION/POSITION TIME  SKY/WX   TEMP    WIND        PRES    WAVE
                                AIR SEA DIR/SP/G            HT/PER
                 (UTC)          (F)     (DEG/KT/KT) (MB)    (FT/S)
PULASKI SHOAL LI 1400            81      60/  5/  6 1016.3F
SAND KEY         1337            84      50/  3/  5 1017.5R
SOMBRERO KEY     1400            85     100/  6/  7 1018.3R
LONG KEY         1400            84 85  360/  5/ 12 1018.5R
MOLASSES REEF    1400            84 86  110/  6/  7 1017.5R
FOWEY ROCKS      1400            84 85  100/  4/  6 1018.0S
Buoy 42080       NOT AVBL

$$


USA.gov is the U.S. government's official web portal to all federal, state and local government web resources and services.